Waarnemingen

Advertentie
Mijn weer
La Hague, Frankrijk (7020): temperatuur & dauwpunt: 16.08.2018 01:00:00 - 22.08.2018 01:00:00 (CEST)La Hague, Frankrijk (7020): windsnelheid & windstoten: 16.08.2018 01:00:00 - 22.08.2018 01:00:00 (CEST)La Hague, Frankrijk (7020): windrichting: 16.08.2018 01:00:00 - 22.08.2018 01:00:00 (CEST)La Hague, Frankrijk (7020): luchtdruk: 16.08.2018 01:00:00 - 22.08.2018 01:00:00 (CEST)La Hague, Frankrijk (7020): zicht: 16.08.2018 01:00:00 - 22.08.2018 01:00:00 (CEST)La Hague, Frankrijk (7020): neerslag: 16.08.2018 01:00:00 - 22.08.2018 01:00:00 (CEST)
Datum & Tijd tt [°C] td [°C] ff [km/u] ff [kn] fx [km/u] fx [kn] dd ppp [hPa] vv [km] rr [mm]
22.08.2018 01:00:00 17,4 15,7 13 7 21 11 W 1020,1 - 0,0
22.08.2018 00:00:00 17,4 15,7 13 7 24 13 W 1020,1 - 0,0
21.08.2018 23:00:00 17,5 16,2 14 8 21 12 W 1020,2 12 0,0
21.08.2018 22:00:00 17,6 16,6 10 6 15 8 WZW 1020,0 - 0,0
21.08.2018 21:00:00 17,7 16,6 11 6 22 12 WZW 1019,7 - 0,0
21.08.2018 20:00:00 18,1 16,8 17 9 23 12 W 1019,7 14 0,0
21.08.2018 19:00:00 18,8 17,1 15 8 19 10 ZW 1019,8 - -
21.08.2018 18:00:00 19,5 17,5 - - - - - 1020,1 - -
21.08.2018 17:00:00 19,8 16,8 14 8 18 10 ZW 1020,6 - -
21.08.2018 16:00:00 19,9 16,7 13 7 - - ZW 1020,9 - -
21.08.2018 15:00:00 19,9 16,7 - - - - - 1021,3 - -
21.08.2018 14:00:00 20,2 16,8 11 6 - - W 1021,7 18 -
21.08.2018 13:00:00 20,1 18,2 14 8 22 12 WZW 1021,7 - -
21.08.2018 12:00:00 18,9 18,4 14 8 22 12 ZW 1021,7 - 0,0
21.08.2018 11:00:00 18,4 18,2 12 7 16 9 ZW 1021,6 14 0,0
21.08.2018 10:00:00 17,4 17,2 9 5 13 7 ZW 1021,7 - 0,0
21.08.2018 09:00:00 17,1 16,9 7 4 14 7 WZW 1021,6 - 0,2
21.08.2018 08:00:00 16,8 16,6 11 6 22 12 WNW 1021,5 3,0 0,0
21.08.2018 07:00:00 17,3 17,1 15 8 22 12 W 1021,2 - 0,4
21.08.2018 06:00:00 17,7 17,5 16 8 20 11 WZW 1021,0 - 0,0
21.08.2018 05:00:00 17,7 17,5 16 8 19 10 WZW 1021,1 0,5 0,0
21.08.2018 04:00:00 17,7 17,5 10 6 16 9 ZW 1021,5 - 0,0
21.08.2018 03:00:00 17,8 17,5 12 7 17 9 ZW 1021,6 - 0,0
21.08.2018 02:00:00 17,8 17,5 12 7 18 10 ZW 1021,9 0,8 0,0
21.08.2018 01:00:00 17,7 17,4 11 6 21 11 ZW 1022,2 - -
21.08.2018 00:00:00 17,9 17,4 14 7 19 11 ZZW 1022,1 - 0,0
20.08.2018 23:00:00 18,0 17,5 12 7 19 10 ZZW 1022,1 - 0,0
20.08.2018 22:00:00 18,0 17,4 14 7 19 10 ZZW 1022,1 - 0,0
20.08.2018 21:00:00 18,1 17,5 14 8 23 12 ZW 1021,8 - 0,0
20.08.2018 20:00:00 18,3 17,3 17 9 24 13 WZW 1021,6 8 -
20.08.2018 19:00:00 18,8 17,6 17 9 26 14 WZW 1021,9 - -
20.08.2018 18:00:00 19,1 17,8 20 11 26 14 WZW 1022,1 - 0,0
20.08.2018 17:00:00 19,7 18,9 14 8 22 12 WZW 1022,4 8 0,0
20.08.2018 16:00:00 18,8 18,1 17 9 23 12 ZW 1022,6 - 0,0
20.08.2018 15:00:00 18,7 18,2 14 7 19 10 ZW 1022,7 - 0,0
20.08.2018 14:00:00 18,5 18,2 13 7 20 11 ZW 1022,7 0,1 0,0
20.08.2018 13:00:00 18,4 18,1 16 8 21 11 ZW 1023,0 - 0,0
20.08.2018 12:00:00 18,1 17,9 - - 21 11 - 1023,1 - -
20.08.2018 11:00:00 17,9 17,7 16 9 22 12 ZW 1023,1 - 0,0
20.08.2018 10:00:00 17,4 17,2 13 7 18 10 ZW 1022,9 - 0,0
20.08.2018 09:00:00 17,2 17,0 10 6 16 9 ZW 1022,5 - 0,0
20.08.2018 08:00:00 16,7 16,5 12 7 16 9 ZW 1022,3 0,1 0,0
20.08.2018 07:00:00 16,5 16,3 8 5 16 9 ZZW 1021,9 - 0,0
20.08.2018 06:00:00 16,7 16,5 11 6 18 10 ZW 1021,8 - 0,0
20.08.2018 05:00:00 16,7 16,5 12 6 16 9 WZW 1021,9 0,1 0,0
20.08.2018 04:00:00 16,7 16,5 12 7 24 13 W 1022,3 - 0,0
20.08.2018 03:00:00 16,9 16,7 19 10 26 14 W 1022,3 - 0,0
20.08.2018 02:00:00 16,8 16,5 19 11 34 19 W 1022,4 0,1 0,0
20.08.2018 01:00:00 17,0 16,7 26 14 36 19 W 1022,6 - 0,0
20.08.2018 00:00:00 17,1 16,8 25 14 37 20 W 1022,3 - 0,0
19.08.2018 23:00:00 17,4 17,1 26 14 41 22 W 1022,1 0,5 0,0
19.08.2018 22:00:00 17,7 17,2 25 14 41 22 W 1021,9 - 0,0
19.08.2018 21:00:00 18,0 17,5 24 13 40 22 WZW 1021,6 - 0,0
19.08.2018 20:00:00 18,0 17,2 29 16 40 22 WZW 1021,5 0,5 0,0
19.08.2018 19:00:00 18,3 17,3 29 16 41 22 WZW 1021,6 - 0,0
19.08.2018 18:00:00 18,7 17,7 31 17 42 23 WZW 1021,8 - 0,0
19.08.2018 17:00:00 18,6 17,4 31 17 46 25 ZW 1022,0 10 -
19.08.2018 16:00:00 18,6 17,4 33 18 46 25 ZW 1022,2 - -
19.08.2018 15:00:00 18,7 17,4 32 17 45 25 ZW 1022,4 - -
19.08.2018 14:00:00 18,8 17,1 35 19 47 26 ZW 1022,3 10 -
19.08.2018 13:00:00 18,9 17,0 34 18 45 24 ZW 1022,2 - -
19.08.2018 12:00:00 18,2 16,5 31 17 46 25 ZW 1022,5 - 0,0
19.08.2018 11:00:00 17,7 15,7 36 19 46 25 ZW 1022,3 10 0,0
19.08.2018 10:00:00 17,9 15,7 32 17 42 23 ZW 1022,3 - 0,0
19.08.2018 09:00:00 17,1 15,3 33 18 47 25 ZW 1022,3 - 0,0
19.08.2018 08:00:00 16,9 15,2 31 17 49 26 ZW 1022,1 10 0,0
19.08.2018 07:00:00 16,6 15,1 29 15 41 22 ZW 1022,2 - 0,0
19.08.2018 06:00:00 16,5 15,0 30 16 40 22 ZW 1022,1 - 0,0
19.08.2018 05:00:00 16,8 15,3 32 18 41 22 WZW 1022,5 14 0,0
19.08.2018 04:00:00 16,8 15,3 31 17 39 21 WZW 1023,0 - 0,0
19.08.2018 03:00:00 16,9 15,6 27 15 36 19 ZW 1023,2 - 0,0
19.08.2018 02:00:00 16,9 15,4 27 15 34 18 WZW 1023,4 14 0,0
19.08.2018 01:00:00 16,9 15,4 25 14 33 18 WZW 1023,5 - 0,0
19.08.2018 00:00:00 17,0 15,3 23 12 29 16 WZW 1023,7 - 0,0
18.08.2018 23:00:00 17,1 15,3 21 12 29 16 WZW 1023,8 10 0,0
18.08.2018 22:00:00 17,2 15,2 21 11 29 16 WZW 1023,9 - 0,0
18.08.2018 21:00:00 17,4 15,0 22 12 31 17 WZW 1023,6 - -
18.08.2018 20:00:00 18,0 15,3 24 13 31 17 WZW 1023,5 10 -
18.08.2018 19:00:00 18,6 15,5 23 12 34 18 WZW 1023,6 - 0,0
18.08.2018 18:00:00 18,6 15,5 26 14 - - WZW 1023,7 - 0,0
18.08.2018 17:00:00 18,9 15,6 25 14 37 20 WZW 1023,8 14 0,0
18.08.2018 16:00:00 18,6 15,7 29 16 40 22 WZW 1024,2 - 0,0
18.08.2018 15:00:00 18,4 15,5 29 15 39 21 WZW 1024,5 - -
18.08.2018 14:00:00 17,9 15,9 24 13 34 18 WZW 1024,4 10 0,0
18.08.2018 13:00:00 17,9 15,9 27 14 35 19 WZW 1024,3 - 0,0
18.08.2018 12:00:00 17,4 15,6 22 12 34 18 WZW 1024,3 - 0,0
18.08.2018 11:00:00 17,3 15,6 24 13 36 19 W 1024,2 10 0,0
18.08.2018 10:00:00 17,3 15,8 26 14 34 18 ZW 1023,8 - 0,0
18.08.2018 09:00:00 17,1 15,8 21 11 31 17 WZW 1023,6 - 0,2
18.08.2018 08:00:00 17,0 15,2 23 13 36 19 WZW 1023,3 10 0,0
18.08.2018 07:00:00 17,0 15,2 22 12 31 17 W 1023,1 - 0,0
18.08.2018 06:00:00 16,8 15,0 24 13 32 17 WZW 1022,9 - 0,0
18.08.2018 05:00:00 16,6 14,8 23 12 31 17 WZW 1023,1 14 0,0
18.08.2018 04:00:00 16,5 14,7 23 13 35 19 WZW 1023,1 - 0,0
18.08.2018 03:00:00 16,7 14,9 26 14 35 19 WZW 1023,2 - 0,0
18.08.2018 02:00:00 16,7 14,7 27 14 35 19 WZW 1023,8 14 0,0
18.08.2018 01:00:00 16,8 14,4 25 13 32 17 WZW 1024,1 - 0,0
18.08.2018 00:00:00 16,8 14,3 25 13 34 18 WZW 1023,9 - 0,0
17.08.2018 23:00:00 16,8 13,9 24 13 30 16 WZW 1023,9 18 0,0
17.08.2018 22:00:00 16,9 13,6 23 12 31 17 W 1023,7 - 0,0
17.08.2018 21:00:00 17,2 13,3 23 12 31 17 W 1023,4 - 0,0
17.08.2018 20:00:00 17,8 13,5 22 12 31 17 W 1022,9 18 -
17.08.2018 19:00:00 18,3 13,2 22 12 32 17 WZW 1022,9 - 0,0
17.08.2018 18:00:00 18,5 13,1 21 11 - - W 1022,8 - -
17.08.2018 17:00:00 18,9 13,3 20 11 29 16 W 1023,1 18 -
17.08.2018 16:00:00 18,8 13,4 23 12 31 17 W 1023,3 - -
17.08.2018 15:00:00 19,0 13,4 19 10 - - W 1023,5 - 0,0
17.08.2018 14:00:00 18,7 14,6 19 10 26 14 W 1023,4 18 -
17.08.2018 13:00:00 18,7 14,8 16 9 - - W 1023,4 - -
17.08.2018 12:00:00 18,5 15,0 - - - - - 1023,1 - -
17.08.2018 11:00:00 17,8 14,9 16 8 23 13 W 1022,6 16 0,0
17.08.2018 10:00:00 17,4 14,5 14 8 22 12 W 1021,9 - 0,0
17.08.2018 09:00:00 16,9 14,4 14 8 20 11 WNW 1021,3 - 0,0
17.08.2018 08:00:00 16,1 14,1 15 8 22 12 WNW 1020,9 12 0,0
17.08.2018 07:00:00 15,5 13,5 16 9 22 12 NW 1020,3 - 0,0
17.08.2018 06:00:00 15,6 13,4 19 10 25 14 NW 1019,9 - 0,0
17.08.2018 05:00:00 15,7 13,4 20 11 27 15 NW 1019,5 14 0,0
17.08.2018 04:00:00 15,9 13,2 21 12 32 17 NW 1019,3 - 0,0
17.08.2018 03:00:00 16,2 12,9 25 14 34 18 NW 1019,2 - 0,0
17.08.2018 02:00:00 16,5 13,2 23 13 34 18 NW 1019,0 14 0,0
17.08.2018 01:00:00 16,6 13,7 28 15 35 19 NW 1018,9 - 0,0
17.08.2018 00:00:00 16,6 13,9 27 14 33 18 WNW 1018,4 - 0,0
16.08.2018 23:00:00 16,6 13,7 24 13 37 20 WNW 1017,9 14 0,0
16.08.2018 22:00:00 16,8 13,1 27 14 35 19 WNW 1017,3 - 0,0
16.08.2018 21:00:00 17,1 12,8 24 13 34 18 WNW 1017,0 - -
16.08.2018 20:00:00 18,0 14,3 16 9 26 14 W 1016,8 12 -
16.08.2018 19:00:00 18,3 15,9 16 8 24 13 W 1016,6 - 0,0
16.08.2018 18:00:00 17,6 15,8 16 9 23 13 W 1016,5 - 0,0
16.08.2018 17:00:00 16,8 15,7 14 8 22 12 W 1016,4 12 0,0
16.08.2018 16:00:00 16,1 15,1 12 6 17 9 WZW 1016,1 - 0,2
16.08.2018 15:00:00 16,0 15,2 12 7 26 14 WZW 1016,2 - -
16.08.2018 14:00:00 16,5 15,9 19 11 29 16 W 1015,9 7 0,6
16.08.2018 13:00:00 16,5 15,9 18 10 42 23 W 1015,7 - 1,0
16.08.2018 12:00:00 17,3 16,3 34 18 46 25 ZW 1015,3 - 0,4
16.08.2018 11:00:00 17,8 15,8 35 19 48 26 ZW 1015,3 6 0,0
16.08.2018 10:00:00 18,7 16,5 26 14 37 20 ZW 1015,2 - 0,0
16.08.2018 09:00:00 18,1 16,1 26 14 35 19 ZZW 1015,1 - 0,0
16.08.2018 08:00:00 17,9 16,1 23 12 34 19 ZZW 1015,5 14 0,0
16.08.2018 07:00:00 17,9 15,9 25 13 35 19 ZZW 1015,5 - 0,0
16.08.2018 06:00:00 18,0 15,6 24 13 36 19 ZW 1015,8 - 0,0
16.08.2018 05:00:00 18,3 15,5 24 13 39 21 ZW 1016,3 12 0,0
16.08.2018 04:00:00 17,8 16,7 22 12 38 21 ZW 1016,9 - 0,0
16.08.2018 03:00:00 17,6 16,8 19 10 28 15 ZW 1017,5 - 0,0
16.08.2018 02:00:00 17,4 16,6 20 11 32 17 WZW 1017,9 14 0,0
16.08.2018 01:00:00 17,2 16,4 26 14 35 19 WZW 1018,2 - 0,0

tt = temperatuur
td = dauwpunt
ff = windsnelheid
fx = windstoten
dd = windrichting
ppp = luchtdruk
vv = zicht
rr = neerslag

Weerstations in de omgeving